| time (UTC) | temp C | wind direction | speed KPH | gust KPH | rain 1hr cm | rain 24hr cm | rain mn cm | humidity % | barometer mb |
| 20260831014559 | 18 | 215 | 4.8 | 11.3 | 0.00 | 0.05 | 0.05 | 89 | 1019.8 |
| 20260831013059 | 17 | 207 | 6.4 | 9.7 | 0.00 | 0.05 | 0.05 | 90 | 1019.6 |
| 20260831011554 | 17 | 218 | 4.8 | 8.0 | 0.00 | 0.05 | 0.05 | 90 | 1019.7 |
| 20260831010112 | 18 | 253 | 3.2 | 4.8 | 0.00 | 0.05 | 0.05 | 89 | 1019.8 |
| 20260831004549 | 18 | 0 | 0.0 | 0.0 | 0.00 | 0.05 | 0.05 | 87 | 1019.6 |
| 20260831003108 | 19 | 0 | 0.0 | 0.0 | 0.00 | 0.05 | 0.05 | 85 | 1019.4 |
| 20260831001558 | 19 | 253 | 1.6 | 6.4 | 0.00 | 0.05 | 0.05 | 85 | 1019.1 |
| 20260831000053 | 20 | 253 | 3.2 | 6.4 | 0.00 | 0.05 | 0.05 | 85 | 1018.9 |
| 20260830234554 | 20 | 246 | 4.8 | 11.3 | 0.00 | 0.05 | 0.05 | 85 | 1018.7 |
| 20260830233056 | 20 | 235 | 3.2 | 11.3 | 0.00 | 0.05 | 0.05 | 86 | 1018.5 |
| 20260830231600 | 20 | 243 | 6.4 | 14.5 | 0.00 | 0.05 | 0.05 | 86 | 1018.6 |
| 20260830230050 | 20 | 293 | 8.0 | 14.5 | 0.00 | 0.05 | 0.05 | 87 | 1018.6 |
| 20260830224604 | 20 | 255 | 8.0 | 16.1 | 0.00 | 0.05 | 0.05 | 86 | 1018.7 |
| 20260830223058 | 20 | 229 | 4.8 | 12.9 | 0.00 | 0.05 | 0.05 | 87 | 1018.8 |
| 20260830221601 | 20 | 273 | 4.8 | 11.3 | 0.00 | 0.05 | 0.05 | 87 | 1018.8 |
| 20260830220100 | 20 | 254 | 9.7 | 14.5 | 0.00 | 0.05 | 0.05 | 86 | 1018.6 |
| 20260830214554 | 20 | 241 | 8.0 | 14.5 | 0.00 | 0.05 | 0.05 | 87 | 1018.6 |
| 20260830213049 | 20 | 247 | 3.2 | 8.0 | 0.00 | 0.05 | 0.05 | 88 | 1018.5 |
| 20260830211557 | 20 | 254 | 3.2 | 11.3 | 0.00 | 0.05 | 0.05 | 88 | 1018.6 |
| 20260830210119 | 21 | 297 | 1.6 | 8.0 | 0.00 | 0.05 | 0.05 | 89 | 1018.7 |
| 20260830204603 | 21 | 317 | 1.6 | 11.3 | 0.00 | 0.05 | 0.05 | 89 | 1018.8 |
| 20260830203104 | 21 | 331 | 0.0 | 8.0 | 0.00 | 0.05 | 0.05 | 89 | 1018.9 |
| 20260830201558 | 20 | 355 | 1.6 | 8.0 | 0.03 | 0.05 | 0.05 | 91 | 1018.8 |
| 20260830200113 | 20 | 0 | 4.8 | 16.1 | 0.03 | 0.05 | 0.05 | 92 | 1018.9 |
| 20260830194635 | 20 | 281 | 4.8 | 12.9 | 0.03 | 0.05 | 0.05 | 93 | 1018.8 |
| 20260830193052 | 19 | 249 | 6.4 | 12.9 | 0.03 | 0.05 | 0.05 | 93 | 1018.9 |
| 20260830191603 | 18 | 235 | 4.8 | 11.3 | 0.00 | 0.03 | 0.03 | 92 | 1019.2 |
| 20260830190057 | 18 | 236 | 4.8 | 11.3 | 0.00 | 0.03 | 0.03 | 92 | 1019.2 |
| 20260830184555 | 18 | 238 | 8.0 | 14.5 | 0.03 | 0.03 | 0.03 | 92 | 1019.4 |
| 20260830183050 | 18 | 240 | 4.8 | 9.7 | 0.03 | 0.03 | 0.03 | 92 | 1019.3 |
| 20260830181550 | 18 | 234 | 3.2 | 11.3 | 0.03 | 0.03 | 0.03 | 91 | 1019.6 |
| 20260830180107 | 18 | 261 | 4.8 | 11.3 | 0.03 | 0.03 | 0.03 | 90 | 1019.7 |
| 20260830174558 | 19 | 258 | 8.0 | 14.5 | 0.00 | 0.00 | 0.00 | 89 | 1019.7 |
| 20260830173108 | 20 | 360 | 4.8 | 12.9 | 0.00 | 0.00 | 0.00 | 87 | 1019.7 |
| 20260830171603 | 20 | 305 | 8.0 | 16.1 | 0.00 | 0.00 | 0.00 | 85 | 1019.8 |
| 20260830170055 | 20 | 259 | 3.2 | 11.3 | 0.00 | 0.00 | 0.00 | 84 | 1019.7 |
| 20260830164557 | 20 | 260 | 3.2 | 6.4 | 0.00 | 0.00 | 0.00 | 82 | 1019.5 |
| 20260830163058 | 20 | 283 | 1.6 | 6.4 | 0.00 | 0.00 | 0.00 | 82 | 1019.5 |
| 20260830161625 | 20 | 258 | 3.2 | 11.3 | 0.00 | 0.00 | 0.00 | 83 | 1019.5 |
| 20260830160059 | 20 | 253 | 3.2 | 8.0 | 0.00 | 0.00 | 0.00 | 82 | 1019.6 |
| 20260830154554 | 20 | 244 | 3.2 | 8.0 | 0.00 | 0.00 | 0.00 | 79 | 1019.5 |
| 20260830153102 | 21 | 234 | 4.8 | 11.3 | 0.00 | 0.00 | 0.00 | 78 | 1019.5 |
| 20260830151555 | 21 | 237 | 3.2 | 12.9 | 0.00 | 0.00 | 0.00 | 78 | 1019.5 |
| 20260830150108 | 21 | 257 | 6.4 | 11.3 | 0.00 | 0.00 | 0.00 | 75 | 1019.5 |
| 20260830144603 | 21 | 249 | 4.8 | 8.0 | 0.00 | 0.00 | 0.00 | 75 | 1019.3 |
| 20260830143101 | 21 | 236 | 3.2 | 6.4 | 0.00 | 0.00 | 0.00 | 74 | 1019.4 |
| 20260830141553 | 21 | 251 | 3.2 | 9.7 | 0.00 | 0.00 | 0.00 | 75 | 1019.1 |
| 20260830140057 | 21 | 257 | 4.8 | 11.3 | 0.00 | 0.00 | 0.00 | 73 | 1019.2 |
| 20260830134546 | 21 | 234 | 6.4 | 11.3 | 0.00 | 0.00 | 0.00 | 72 | 1018.9 |
| 20260830133059 | 21 | 244 | 6.4 | 11.3 | 0.00 | 0.00 | 0.00 | 72 | 1018.8 |
| 20260830131607 | 20 | 246 | 4.8 | 14.5 | 0.00 | 0.00 | 0.00 | 72 | 1018.8 |
| 20260830130051 | 20 | 228 | 6.4 | 11.3 | 0.00 | 0.00 | 0.00 | 72 | 1019.0 |
| 20260830124559 | 20 | 203 | 8.0 | 17.7 | 0.00 | 0.00 | 0.00 | 72 | 1018.8 |
| 20260830123058 | 20 | 198 | 9.7 | 14.5 | 0.00 | 0.00 | 0.00 | 72 | 1018.9 |
| 20260830121553 | 20 | 217 | 9.7 | 14.5 | 0.00 | 0.00 | 0.00 | 72 | 1019.1 |
| 20260830120052 | 20 | 202 | 6.4 | 12.9 | 0.00 | 0.00 | 0.00 | 72 | 1018.8 |
| 20260830114605 | 20 | 196 | 9.7 | 16.1 | 0.00 | 0.00 | 0.00 | 71 | 1018.8 |
| 20260830113052 | 20 | 241 | 8.0 | 16.1 | 0.00 | 0.00 | 0.00 | 71 | 1018.9 |
| 20260830111553 | 20 | 239 | 6.4 | 12.9 | 0.00 | 0.00 | 0.00 | 71 | 1018.8 |
| 20260830110047 | 20 | 190 | 8.0 | 14.5 | 0.00 | 0.00 | 0.00 | 70 | 1018.7 |
| 20260830104605 | 20 | 218 | 11.3 | 16.1 | 0.00 | 0.00 | 0.00 | 69 | 1018.9 |
| 20260830103053 | 20 | 202 | 11.3 | 16.1 | 0.00 | 0.00 | 0.00 | 69 | 1018.8 |
| 20260830101551 | 20 | 187 | 8.0 | 16.1 | 0.00 | 0.00 | 0.00 | 68 | 1019.1 |
| 20260830100105 | 20 | 184 | 9.7 | 17.7 | 0.00 | 0.00 | 0.00 | 68 | 1019.1 |
| 20260830094555 | 20 | 201 | 9.7 | 16.1 | 0.00 | 0.00 | 0.00 | 68 | 1018.9 |
| 20260830093049 | 20 | 190 | 9.7 | 16.1 | 0.00 | 0.00 | 0.00 | 67 | 1019.1 |
| 20260830091557 | 20 | 214 | 9.7 | 16.1 | 0.00 | 0.00 | 0.00 | 67 | 1018.9 |
| 20260830090049 | 20 | 209 | 9.7 | 16.1 | 0.00 | 0.00 | 0.00 | 67 | 1019.0 |
| 20260830084556 | 20 | 202 | 9.7 | 16.1 | 0.00 | 0.00 | 0.00 | 67 | 1019.3 |
| 20260830083059 | 20 | 228 | 9.7 | 16.1 | 0.00 | 0.00 | 0.00 | 67 | 1019.3 |
| 20260830081551 | 20 | 203 | 8.0 | 16.1 | 0.00 | 0.00 | 0.00 | 68 | 1019.3 |
| 20260830080056 | 21 | 209 | 9.7 | 17.7 | 0.00 | 0.00 | 0.00 | 68 | 1019.3 |
| 20260830074602 | 21 | 199 | 11.3 | 19.3 | 0.00 | 0.00 | 0.00 | 67 | 1019.4 |
| 20260830073112 | 21 | 219 | 9.7 | 19.3 | 0.00 | 0.00 | 0.00 | 67 | 1019.3 |
| 20260830071603 | 21 | 223 | 11.3 | 22.5 | 0.00 | 0.00 | 0.00 | 68 | 1019.3 |
| 20260830064633 | 20 | 215 | 9.7 | 17.7 | 0.00 | 0.00 | 0.00 | 71 | 1019.2 |
| 20260830063058 | 20 | 208 | 8.0 | 16.1 | 0.00 | 0.00 | 0.00 | 72 | 1019.4 |
| 20260830061609 | 20 | 194 | 11.3 | 17.7 | 0.00 | 0.00 | 0.00 | 71 | 1019.7 |
| 20260830060054 | 20 | 196 | 11.3 | 16.1 | 0.00 | 0.00 | 0.00 | 71 | 1019.6 |
| 20260830054555 | 20 | 196 | 9.7 | 16.1 | 0.00 | 0.00 | 0.00 | 71 | 1019.6 |
| 20260830053048 | 20 | 205 | 8.0 | 16.1 | 0.00 | 0.00 | 0.00 | 72 | 1019.5 |
| 20260830051556 | 20 | 207 | 9.7 | 16.1 | 0.00 | 0.00 | 0.00 | 73 | 1019.7 |
| 20260830050052 | 20 | 204 | 8.0 | 14.5 | 0.00 | 0.00 | 0.00 | 74 | 1019.6 |
| 20260830044609 | 20 | 205 | 9.7 | 14.5 | 0.00 | 0.00 | 0.00 | 73 | 1019.6 |
| 20260830043059 | 20 | 198 | 6.4 | 12.9 | 0.00 | 0.00 | 0.00 | 74 | 1019.6 |
| 20260830041625 | 20 | 211 | 6.4 | 12.9 | 0.00 | 0.00 | 0.00 | 74 | 1019.6 |
| 20260830040106 | 19 | 200 | 6.4 | 11.3 | 0.00 | 0.00 | 0.00 | 75 | 1019.6 |
| 20260830034547 | 19 | 195 | 6.4 | 11.3 | 0.00 | 0.00 | 0.00 | 75 | 1019.9 |
| 20260830033112 | 19 | 204 | 6.4 | 11.3 | 0.00 | 0.00 | 0.00 | 75 | 1019.8 |
| 20260830031558 | 19 | 197 | 6.4 | 9.7 | 0.00 | 0.00 | 0.00 | 75 | 1019.8 |
| 20260830030053 | 20 | 194 | 6.4 | 9.7 | 0.00 | 0.00 | 0.00 | 74 | 1019.8 |
| 20260830024554 | 20 | 183 | 6.4 | 9.7 | 0.00 | 0.00 | 0.00 | 74 | 1019.9 |
| 20260830023049 | 20 | 198 | 6.4 | 9.7 | 0.00 | 0.00 | 0.00 | 73 | 1019.9 |
| 20260830021552 | 20 | 196 | 6.4 | 9.7 | 0.00 | 0.00 | 0.00 | 72 | 1019.9 |
| 20260830020108 | 20 | 192 | 4.8 | 9.7 | 0.00 | 0.00 | 0.00 | 72 | 1019.9 |